Etusivu
METAR-TAF:

METAR-TAF

Lentoasemat :

Quentin Aanenson Field

Luverne, Minnesota, Yhdysvallat

Leveyspiiri: 43-37-16N, Pituuspiiri: 096-12-58W, korkeus merenpinnasta: 436 m

Tämänhetkinen sää

Tämä raportti tehtiin 5 tuntia ja 16 minuuttia sitten, kello 06.07 UTC
Tuuli 6 kn kaakosta
Lämpötila 16°C
Kosteus 82%
Ilmanpaine 1022 hPa
Näkyvyys: 16.1 km
selkeää

METAR: KLYV 240607Z AUTO 13006KT 10SM CLR 16/13 A3017 RMK AO2

Aika: 06:23 (11:23 UTC)


TAF: puuttuu

Säähavainnot ja -ennusteet yli 4000 lentoasemalta (METAR- ja TAF-raportit).

Käytössä olevat sääasemat on merkitty karttaan keltaisilla ja punaisilla pisteillä.

Aseta hiiri pisteen päälle nähdäksesi sääaseman nimen.

Klikkaa sitten nähdäksesi säähavainnot ja -ennusteet.

Kartan vaihtaminen: klikkaa mustalla rastilla varustettuja vihreitä pisteitä, niin voit zoomata sisään; viivalla varustettua vihreää pistettä, niin voit zoomata ulos tai vihreitä nuolia, niin pääset viereisille kartoille.


METAR-TAF: